Time,TemperatureF,DewpointF,PressureIn,WindDirection,WindDirectionDegrees,WindSpeedMPH,WindSpeedGustMPH,Humidity,HourlyPrecipIn,Conditions,Clouds,dailyrainin,SolarRadiationWatts/m^2,SoftwareType,DateUTC
2013-03-31 00:00:00,66.4,57.1,30.06,ENE,68,2.2,4.6,72,0.00,RA,BKN,0.00,0.0,WeatherDisplay:10.37,2013-03-31 10:00:00,
2013-03-31 00:05:00,66.4,56.7,30.06,NE,45,3.6,4.6,71,0.00,RA,BKN,0.00,0.0,WeatherDisplay:10.37,2013-03-31 10:05:00,
2013-03-31 00:10:00,66.4,56.7,30.06,ENE,68,3.3,5.8,71,0.00,RA,BKN,0.00,0.0,WeatherDisplay:10.37,2013-03-31 10:10:00,
2013-03-31 00:15:00,66.6,56.9,30.06,NE,45,4.7,6.9,71,0.00,SCT,BKN,0.00,0.0,WeatherDisplay:10.37,2013-03-31 10:15:00,
2013-03-31 00:20:00,66.7,57.0,30.06,NNE,22,4.9,4.9,71,0.00,SCT,BKN,0.00,0.0,WeatherDisplay:10.37,2013-03-31 10:20:00,
2013-03-31 00:25:00,66.7,57.0,30.06,NE,45,5.4,8.1,71,0.00,SCT,BKN,0.00,0.0,WeatherDisplay:10.37,2013-03-31 10:25:00,
2013-03-31 00:30:00,66.7,57.4,30.06,NE,45,5.6,8.1,72,0.00,SCT,BKN,0.00,0.0,WeatherDisplay:10.37,2013-03-31 10:30:00,
2013-03-31 00:35:00,66.7,57.0,30.06,NE,45,4.7,6.9,71,0.00,SCT,BKN,0.00,0.0,WeatherDisplay:10.37,2013-03-31 10:35:00,
2013-03-31 00:40:00,66.7,57.0,30.06,ENE,68,5.4,8.1,71,0.00,SCT,BKN,0.00,0.0,WeatherDisplay:10.37,2013-03-31 10:40:00,
2013-03-31 00:45:00,66.6,56.9,30.06,NNE,22,3.6,6.2,71,0.00,SCT,BKN,0.00,0.0,WeatherDisplay:10.37,2013-03-31 10:45:00,
2013-03-31 00:50:00,66.6,56.5,30.03,ENE,68,5.4,8.1,70,0.00,SCT,BKN,0.00,0.0,WeatherDisplay:10.37,2013-03-31 10:50:00,
2013-03-31 00:55:00,66.6,56.1,30.03,NNE,22,4.3,5.8,69,0.00,SCT,BKN,0.00,0.0,WeatherDisplay:10.37,2013-03-31 10:55:00,
2013-03-31 01:00:00,66.6,56.1,30.03,ENE,68,3.1,4.6,69,0.00,SCT,BKN,0.00,0.0,WeatherDisplay:10.37,2013-03-31 11:00:00,
2013-03-31 01:05:00,66.4,55.9,30.06,NE,45,3.8,4.6,69,0.00,SCT,BKN,0.00,0.0,WeatherDisplay:10.37,2013-03-31 11:05:00,
2013-03-31 01:10:00,66.4,55.5,30.06,NE,45,3.8,4.0,68,0.00,SCT,BKN,0.00,0.0,WeatherDisplay:10.37,2013-03-31 11:10:00,
2013-03-31 01:15:00,66.4,55.5,30.06,ENE,68,3.3,5.9,68,0.00,SCT,BKN,0.00,0.0,WeatherDisplay:10.37,2013-03-31 11:15:00,
2013-03-31 01:20:00,66.4,55.1,30.06,ENE,68,3.8,5.8,67,0.00,SCT,BKN,0.00,0.0,WeatherDisplay:10.37,2013-03-31 11:20:00,
2013-03-31 01:25:00,66.2,54.5,30.06,ENE,68,4.0,5.8,66,0.00,SCT,BKN,0.00,0.0,WeatherDisplay:10.37,2013-03-31 11:25:00,
2013-03-31 01:30:00,66.2,54.1,30.06,ENE,68,4.0,4.6,65,0.00,SCT,BKN,0.00,0.0,WeatherDisplay:10.37,2013-03-31 11:30:00,
2013-03-31 01:35:00,66.0,53.9,30.06,ENE,68,3.6,4.9,65,0.00,SCT,BKN,0.00,0.0,WeatherDisplay:10.37,2013-03-31 11:35:00,
2013-03-31 01:40:00,66.0,53.5,30.06,ENE,68,3.8,5.8,64,0.00,SCT,BKN,0.00,0.0,WeatherDisplay:10.37,2013-03-31 11:40:00,
2013-03-31 01:45:00,66.2,53.2,30.06,ENE,68,3.8,4.6,63,0.00,SCT,BKN,0.00,0.0,WeatherDisplay:10.37,2013-03-31 11:45:00,
2013-03-31 01:50:00,66.2,52.8,30.03,ENE,68,3.1,3.6,62,0.00,SCT,BKN,0.00,0.0,WeatherDisplay:10.37,2013-03-31 11:50:00,
2013-03-31 01:55:00,66.2,52.8,30.03,East,90,3.8,6.9,62,0.00,SCT,BKN,0.00,0.0,WeatherDisplay:10.37,2013-03-31 11:55:00,
2013-03-31 02:00:00,66.4,53.0,30.03,NE,45,4.7,5.9,62,0.00,SCT,BKN,0.00,0.0,WeatherDisplay:10.37,2013-03-31 12:00:00,
2013-03-31 02:05:00,66.2,53.2,30.06,NE,45,3.8,4.6,63,0.00,SCT,BKN,0.00,0.0,WeatherDisplay:10.37,2013-03-31 12:05:00,
2013-03-31 02:10:00,66.2,52.8,30.06,NE,45,4.9,5.8,62,0.00,SCT,BKN,0.00,0.0,WeatherDisplay:10.37,2013-03-31 12:10:00,
2013-03-31 02:15:00,66.2,52.8,30.06,ENE,68,4.5,5.8,62,0.00,SCT,BKN,0.00,0.0,WeatherDisplay:10.37,2013-03-31 12:15:00,
2013-03-31 02:20:00,66.0,52.6,30.06,NE,45,4.0,5.8,62,0.00,SCT,BKN,0.00,0.0,WeatherDisplay:10.37,2013-03-31 12:20:00,
2013-03-31 02:25:00,66.0,52.2,30.06,NE,45,3.8,4.6,61,0.00,SCT,BKN,0.00,0.0,WeatherDisplay:10.37,2013-03-31 12:25:00,
2013-03-31 02:30:00,66.0,52.2,30.06,NE,45,3.3,5.8,61,0.00,SCT,BKN,0.00,0.0,WeatherDisplay:10.37,2013-03-31 12:30:00,
2013-03-31 02:35:00,66.0,52.2,30.06,ENE,68,3.3,5.8,61,0.00,SCT,BKN,0.00,0.0,WeatherDisplay:10.37,2013-03-31 12:35:00,
2013-03-31 02:40:00,66.0,52.6,30.06,NE,45,3.8,5.8,62,0.00,SCT,BKN,0.00,0.0,WeatherDisplay:10.37,2013-03-31 12:40:00,
2013-03-31 02:45:00,66.2,51.9,30.06,NE,45,4.5,5.8,60,0.00,SCT,BKN,0.00,0.0,WeatherDisplay:10.37,2013-03-31 12:45:00,
2013-03-31 02:50:00,66.0,51.7,30.06,NE,45,4.7,6.0,60,0.00,SCT,BKN,0.00,0.0,WeatherDisplay:10.37,2013-03-31 12:50:00,
2013-03-31 02:55:00,66.0,51.7,30.06,NE,45,6.0,8.1,60,0.00,SCT,BKN,0.00,0.0,WeatherDisplay:10.37,2013-03-31 12:55:00,
2013-03-31 03:00:00,66.0,51.7,30.06,NE,45,4.0,5.8,60,0.00,SCT,BKN,0.00,0.0,WeatherDisplay:10.37,2013-03-31 13:00:00,
2013-03-31 03:05:00,66.0,51.3,30.06,NE,45,4.7,8.1,59,0.00,SCT,BKN,0.00,0.0,WeatherDisplay:10.37,2013-03-31 13:05:00,
2013-03-31 03:10:00,66.0,51.3,30.06,NE,45,4.3,4.6,59,0.00,SCT,BKN,0.00,0.0,WeatherDisplay:10.37,2013-03-31 13:10:00,
2013-03-31 03:15:00,65.8,50.6,30.06,NE,45,4.9,5.8,58,0.00,SCT,BKN,0.00,0.0,WeatherDisplay:10.37,2013-03-31 13:15:00,
2013-03-31 03:20:00,65.8,50.2,30.06,NE,45,4.5,5.8,57,0.00,SCT,BKN,0.00,0.0,WeatherDisplay:10.37,2013-03-31 13:20:00,
2013-03-31 03:25:00,65.7,49.5,30.06,NE,45,3.6,6.0,56,0.00,SCT,BKN,0.00,0.0,WeatherDisplay:10.37,2013-03-31 13:25:00,
2013-03-31 03:30:00,65.7,49.0,30.06,NE,45,4.3,6.0,55,0.00,SCT,BKN,0.00,0.0,WeatherDisplay:10.37,2013-03-31 13:30:00,
2013-03-31 03:35:00,65.7,49.0,30.06,ENE,68,3.1,4.7,55,0.00,SCT,BKN,0.00,0.0,WeatherDisplay:10.37,2013-03-31 13:35:00,
2013-03-31 03:40:00,65.5,48.4,30.06,ENE,68,5.9,8.1,54,0.00,SCT,BKN,0.00,0.0,WeatherDisplay:10.37,2013-03-31 13:40:00,
2013-03-31 03:45:00,65.7,48.1,30.06,NNE,22,5.9,6.9,53,0.00,SCT,BKN,0.00,0.0,WeatherDisplay:10.37,2013-03-31 13:45:00,
2013-03-31 03:50:00,65.7,49.5,30.06,NE,45,5.4,5.8,56,0.00,SCT,BKN,0.00,0.0,WeatherDisplay:10.37,2013-03-31 13:50:00,
2013-03-31 03:55:00,65.7,50.0,30.06,NE,45,5.9,6.9,57,0.00,SCT,BKN,0.00,0.0,WeatherDisplay:10.37,2013-03-31 13:55:00,
2013-03-31 04:00:00,65.5,50.8,30.06,NE,45,4.7,5.8,59,0.00,SCT,BKN,0.00,0.0,WeatherDisplay:10.37,2013-03-31 14:00:00,
2013-03-31 04:05:00,65.5,51.2,30.03,ENE,68,4.7,9.2,60,0.00,SCT,BKN,0.00,0.0,WeatherDisplay:10.37,2013-03-31 14:05:00,
2013-03-31 04:10:00,65.5,52.1,30.03,NNE,22,4.9,8.1,62,0.00,SCT,BKN,0.00,0.0,WeatherDisplay:10.37,2013-03-31 14:10:00,
2013-03-31 04:15:00,65.5,51.7,30.03,NE,45,6.2,8.1,61,0.00,SCT,BKN,0.00,0.0,WeatherDisplay:10.37,2013-03-31 14:15:00,
2013-03-31 04:20:00,65.5,51.2,30.06,NE,45,6.0,8.1,60,0.00,SCT,BKN,0.00,0.0,WeatherDisplay:10.37,2013-03-31 14:20:00,
2013-03-31 04:25:00,65.5,50.8,30.06,NE,45,6.0,6.4,59,0.00,SCT,BKN,0.00,0.0,WeatherDisplay:10.37,2013-03-31 14:25:00,
2013-03-31 04:30:00,65.3,49.7,30.06,ENE,68,5.9,10.9,57,0.00,SCT,BKN,0.00,0.0,WeatherDisplay:10.37,2013-03-31 14:30:00,
2013-03-31 04:35:00,65.3,48.7,30.06,ENE,68,5.4,6.0,55,0.00,SCT,BKN,0.00,0.0,WeatherDisplay:10.37,2013-03-31 14:35:00,
2013-03-31 04:40:00,65.3,47.7,30.06,NE,45,5.9,6.2,53,0.00,SCT,BKN,0.00,0.0,WeatherDisplay:10.37,2013-03-31 14:40:00,
2013-03-31 04:45:00,65.1,47.6,30.06,ENE,68,4.5,5.8,53,0.00,SCT,BKN,0.00,0.0,WeatherDisplay:10.37,2013-03-31 14:45:00,
2013-03-31 04:50:00,65.3,47.2,30.06,East,90,5.6,8.1,52,0.00,SCT,BKN,0.00,0.0,WeatherDisplay:10.37,2013-03-31 14:50:00,
2013-03-31 04:55:00,65.3,46.7,30.06,NE,45,4.5,7.1,51,0.00,SCT,BKN,0.00,0.0,WeatherDisplay:10.37,2013-03-31 14:55:00,
2013-03-31 05:00:00,65.1,47.1,30.06,North,0,4.0,4.6,52,0.00,SCT,BKN,0.00,0.0,WeatherDisplay:10.37,2013-03-31 15:00:00,
2013-03-31 05:05:00,65.3,48.2,30.06,NE,45,4.0,5.8,54,0.00,SCT,BKN,0.00,0.0,WeatherDisplay:10.37,2013-03-31 15:05:00,
2013-03-31 05:10:00,65.1,49.0,30.06,NE,45,4.0,4.6,56,0.00,SCT,BKN,0.00,0.0,WeatherDisplay:10.37,2013-03-31 15:10:00,
2013-03-31 05:15:00,65.1,50.9,30.06,NE,45,3.6,5.4,60,0.00,SCT,BKN,0.00,0.0,WeatherDisplay:10.37,2013-03-31 15:15:00,
2013-03-31 05:20:00,64.9,50.7,30.06,NE,45,5.4,6.9,60,0.00,SCT,BKN,0.00,0.0,WeatherDisplay:10.37,2013-03-31 15:20:00,
2013-03-31 05:25:00,64.9,50.7,30.06,NE,45,2.9,5.8,60,0.00,SCT,BKN,0.00,0.0,WeatherDisplay:10.37,2013-03-31 15:25:00,
2013-03-31 05:30:00,64.9,50.3,30.06,NE,45,4.5,7.1,59,0.00,SCT,BKN,0.00,0.0,WeatherDisplay:10.37,2013-03-31 15:30:00,
2013-03-31 05:35:00,64.9,49.8,30.03,NE,45,4.5,5.8,58,0.00,SCT,BKN,0.00,0.0,WeatherDisplay:10.37,2013-03-31 15:35:00,
2013-03-31 05:40:00,64.9,49.3,30.03,ENE,68,4.0,4.9,57,0.00,SCT,BKN,0.00,0.0,WeatherDisplay:10.37,2013-03-31 15:40:00,
2013-03-31 05:45:00,64.9,48.9,30.03,NE,45,3.8,5.8,56,0.00,SCT,BKN,0.00,0.0,WeatherDisplay:10.37,2013-03-31 15:45:00,
2013-03-31 05:50:00,64.8,48.2,30.03,East,90,3.8,4.7,55,0.00,SCT,BKN,0.00,0.0,WeatherDisplay:10.37,2013-03-31 15:50:00,
2013-03-31 05:55:00,64.8,47.7,30.03,ENE,68,5.6,6.9,54,0.00,SCT,BKN,0.00,0.0,WeatherDisplay:10.37,2013-03-31 15:55:00,
2013-03-31 06:00:00,64.8,47.7,30.03,NE,45,2.4,3.5,54,0.00,SCT,BKN,0.00,0.0,WeatherDisplay:10.37,2013-03-31 16:00:00,
2013-03-31 06:05:00,64.6,47.6,30.06,ENE,68,2.9,4.6,54,0.00,SCT,BKN,0.00,0.0,WeatherDisplay:10.37,2013-03-31 16:05:00,
2013-03-31 06:10:00,64.4,47.4,30.06,NE,45,3.3,4.7,54,0.00,SCT,BKN,0.00,0.0,WeatherDisplay:10.37,2013-03-31 16:10:00,
2013-03-31 06:15:00,64.6,48.0,30.06,North,0,3.6,4.6,55,0.00,SCT,BKN,0.00,0.0,WeatherDisplay:10.37,2013-03-31 16:15:00,
2013-03-31 06:20:00,64.4,48.4,30.06,NW,315,2.2,3.5,56,0.00,SCT,BKN,0.00,0.0,WeatherDisplay:10.37,2013-03-31 16:20:00,
2013-03-31 06:25:00,64.6,48.5,30.06,NE,45,3.6,4.6,56,0.00,SCT,BKN,0.00,0.0,WeatherDisplay:10.37,2013-03-31 16:25:00,
2013-03-31 06:30:00,64.4,48.8,30.06,NNW,338,2.6,3.5,57,0.00,SCT,BKN,0.00,0.0,WeatherDisplay:10.37,2013-03-31 16:30:00,
2013-03-31 06:35:00,64.4,49.8,30.06,NE,45,2.4,4.6,59,0.00,SCT,BKN,0.00,0.0,WeatherDisplay:10.37,2013-03-31 16:35:00,
2013-03-31 06:40:00,64.4,50.7,30.06,NE,45,2.9,3.5,61,0.00,SCT,BKN,0.00,0.0,WeatherDisplay:10.37,2013-03-31 16:40:00,
2013-03-31 06:45:00,64.4,50.7,30.06,ENE,68,3.6,5.8,61,0.00,SCT,BKN,0.00,0.0,WeatherDisplay:10.37,2013-03-31 16:45:00,
2013-03-31 06:50:00,64.4,51.1,30.06,ENE,68,2.9,5.8,62,0.00,SCT,BKN,0.00,0.0,WeatherDisplay:10.37,2013-03-31 16:50:00,
2013-03-31 06:55:00,64.2,51.4,30.06,East,90,2.0,2.9,63,0.00,SCT,BKN,0.00,0.0,WeatherDisplay:10.37,2013-03-31 16:55:00,
2013-03-31 07:00:00,64.2,51.4,30.06,East,90,1.4,3.5,63,0.00,SCT,BKN,0.00,0.0,WeatherDisplay:10.37,2013-03-31 17:00:00,
2013-03-31 07:05:00,63.9,51.4,30.06,WNW,292,1.6,2.9,64,0.00,SCT,BKN,0.00,0.0,WeatherDisplay:10.37,2013-03-31 17:05:00,
2013-03-31 07:10:00,64.0,51.2,30.06,NE,45,3.8,5.8,63,0.00,SCT,BKN,0.00,0.0,WeatherDisplay:10.37,2013-03-31 17:10:00,
2013-03-31 07:15:00,64.2,51.4,30.06,ENE,68,2.9,4.6,63,0.00,SCT,BKN,0.00,0.0,WeatherDisplay:10.37,2013-03-31 17:15:00,
2013-03-31 07:20:00,64.4,50.7,30.06,North,0,2.4,4.6,61,0.00,SCT,BKN,0.00,0.0,WeatherDisplay:10.37,2013-03-31 17:20:00,
2013-03-31 07:25:00,64.4,50.7,30.06,NE,45,2.0,2.3,61,0.00,SCT,BKN,0.00,0.0,WeatherDisplay:10.37,2013-03-31 17:25:00,
2013-03-31 07:30:00,64.2,51.4,30.06,West,270,0.0,1.4,63,0.00,SCT,BKN,0.00,0.0,WeatherDisplay:10.37,2013-03-31 17:30:00,
2013-03-31 07:35:00,64.0,50.8,30.06,NW,315,2.0,2.4,62,0.00,SCT,BKN,0.00,0.0,WeatherDisplay:10.37,2013-03-31 17:35:00,
2013-03-31 07:40:00,64.4,50.7,30.06,NE,45,3.3,3.8,61,0.00,SCT,BKN,0.00,0.0,WeatherDisplay:10.37,2013-03-31 17:40:00,
2013-03-31 07:45:00,64.4,51.1,30.06,ENE,68,2.2,3.6,62,0.00,SCT,BKN,0.00,0.0,WeatherDisplay:10.37,2013-03-31 17:45:00,
2013-03-31 07:50:00,64.6,50.8,30.06,East,90,0.9,2.3,61,0.00,SCT,BKN,0.00,0.0,WeatherDisplay:10.37,2013-03-31 17:50:00,
2013-03-31 07:55:00,64.6,50.8,30.06,East,90,0.0,3.5,61,0.00,SCT,BKN,0.00,0.0,WeatherDisplay:10.37,2013-03-31 17:55:00,
2013-03-31 08:00:00,64.8,51.4,30.06,SW,225,2.2,3.5,62,0.00,SCT,BKN,0.00,0.0,WeatherDisplay:10.37,2013-03-31 18:00:00,
2013-03-31 08:05:00,64.9,52.5,30.06,East,90,2.4,3.5,64,0.00,SCT,BKN,0.00,0.0,WeatherDisplay:10.37,2013-03-31 18:05:00,
2013-03-31 08:10:00,64.9,51.6,30.06,West,270,3.8,4.6,62,0.00,SCT,BKN,0.00,0.0,WeatherDisplay:10.37,2013-03-31 18:10:00,
2013-03-31 08:15:00,65.3,51.9,30.06,East,90,2.2,3.1,62,0.00,SCT,BKN,0.00,0.0,WeatherDisplay:10.37,2013-03-31 18:15:00,
2013-03-31 08:20:00,65.1,52.2,30.09,WNW,292,3.1,4.6,63,0.00,SCT,BKN,0.00,0.0,WeatherDisplay:10.37,2013-03-31 18:20:00,
2013-03-31 08:25:00,65.3,52.4,30.09,SE,135,1.4,3.5,63,0.00,SCT,BKN,0.00,0.0,WeatherDisplay:10.37,2013-03-31 18:25:00,
2013-03-31 08:30:00,65.5,51.7,30.09,East,90,2.6,3.5,61,0.00,SCT,BKN,0.00,0.0,WeatherDisplay:10.37,2013-03-31 18:30:00,
2013-03-31 08:35:00,65.5,52.1,30.09,East,90,2.4,2.4,62,0.00,SCT,BKN,0.00,0.0,WeatherDisplay:10.37,2013-03-31 18:35:00,
2013-03-31 08:40:00,65.7,51.4,30.09,ENE,68,2.6,3.5,60,0.00,SCT,BKN,0.00,0.0,WeatherDisplay:10.37,2013-03-31 18:40:00,
2013-03-31 08:45:00,65.8,51.6,30.09,NE,45,0.0,2.3,60,0.00,SCT,BKN,0.00,0.0,WeatherDisplay:10.37,2013-03-31 18:45:00,
2013-03-31 08:50:00,66.2,51.0,30.09,East,90,2.4,2.9,58,0.00,SCT,BKN,0.00,0.0,WeatherDisplay:10.37,2013-03-31 18:50:00,
2013-03-31 08:55:00,66.2,51.0,30.09,NW,315,0.0,3.5,58,0.00,SCT,BKN,0.00,0.0,WeatherDisplay:10.37,2013-03-31 18:55:00,
2013-03-31 09:00:00,66.2,51.0,30.09,ENE,68,0.9,2.9,58,0.00,SCT,BKN,0.00,0.0,WeatherDisplay:10.37,2013-03-31 19:00:00,
2013-03-31 09:05:00,66.4,51.2,30.06,East,90,1.4,3.1,58,0.00,SCT,BKN,0.00,0.0,WeatherDisplay:10.37,2013-03-31 19:05:00,
2013-03-31 09:10:00,66.4,50.7,30.06,ENE,68,0.0,2.9,57,0.00,SCT,BKN,0.00,0.0,WeatherDisplay:10.37,2013-03-31 19:10:00,
2013-03-31 09:15:00,66.4,50.2,30.06,NE,45,4.7,4.7,56,0.00,SCT,BKN,0.00,0.0,WeatherDisplay:10.37,2013-03-31 19:15:00,
2013-03-31 09:20:00,66.7,50.5,30.09,ENE,68,0.0,2.3,56,0.00,SCT,BKN,0.00,125.0,WeatherDisplay:10.37,2013-03-31 19:20:00,
2013-03-31 09:25:00,66.9,50.7,30.09,SW,225,0.0,1.2,56,0.00,SCT,BKN,0.00,125.0,WeatherDisplay:10.37,2013-03-31 19:25:00,
2013-03-31 09:30:00,67.1,48.9,30.09,WNW,292,2.0,5.8,52,0.00,SCT,BKN,0.00,125.0,WeatherDisplay:10.37,2013-03-31 19:30:00,
2013-03-31 09:35:00,67.5,49.7,30.09,NNW,338,2.6,4.6,53,0.00,SCT,BKN,0.00,125.0,WeatherDisplay:10.37,2013-03-31 19:35:00,
2013-03-31 09:40:00,67.8,50.6,30.09,WSW,248,2.0,3.8,54,0.00,SCT,BKN,0.00,125.0,WeatherDisplay:10.37,2013-03-31 19:40:00,
2013-03-31 09:45:00,68.0,50.7,30.09,NE,45,0.0,2.4,54,0.00,SCT,BKN,0.00,125.0,WeatherDisplay:10.37,2013-03-31 19:45:00,
2013-03-31 09:50:00,68.2,49.9,30.09,East,90,2.4,3.5,52,0.00,SCT,BKN,0.00,125.0,WeatherDisplay:10.37,2013-03-31 19:50:00,
2013-03-31 09:55:00,68.2,49.4,30.09,NE,45,4.7,5.8,51,0.00,SCT,BKN,0.00,125.0,WeatherDisplay:10.37,2013-03-31 19:55:00,
2013-03-31 10:00:00,68.4,49.5,30.09,East,90,3.3,8.1,51,0.00,SCT,BKN,0.00,125.0,WeatherDisplay:10.37,2013-03-31 20:00:00,
2013-03-31 10:05:00,68.4,49.5,30.09,NNW,338,4.0,5.8,51,0.00,SCT,BKN,0.00,125.0,WeatherDisplay:10.37,2013-03-31 20:05:00,
2013-03-31 10:10:00,68.5,49.2,30.09,NNW,338,4.9,5.8,50,0.00,SCT,BKN,0.00,125.0,WeatherDisplay:10.37,2013-03-31 20:10:00,
2013-03-31 10:15:00,68.7,49.9,30.09,NNE,22,3.8,10.9,51,0.00,SCT,BKN,0.00,125.0,WeatherDisplay:10.37,2013-03-31 20:15:00,
2013-03-31 10:20:00,69.3,50.9,30.09,East,90,2.2,2.3,52,0.00,SCT,BKN,0.00,125.0,WeatherDisplay:10.37,2013-03-31 20:20:00,
2013-03-31 10:25:00,69.6,51.2,30.09,North,0,0.0,2.3,52,0.00,SCT,BKN,0.00,250.0,WeatherDisplay:10.37,2013-03-31 20:25:00,
2013-03-31 10:30:00,69.8,51.4,30.09,SW,225,1.4,4.6,52,0.00,SCT,BKN,0.00,125.0,WeatherDisplay:10.37,2013-03-31 20:30:00,
2013-03-31 10:35:00,70.0,51.0,30.09,NNW,338,2.9,4.6,51,0.00,SCT,BKN,0.00,125.0,WeatherDisplay:10.37,2013-03-31 20:35:00,
2013-03-31 10:40:00,70.2,51.2,30.09,NE,45,0.9,2.3,51,0.00,SCT,BKN,0.00,125.0,WeatherDisplay:10.37,2013-03-31 20:40:00,
2013-03-31 10:45:00,70.3,50.3,30.09,NW,315,2.2,3.5,49,0.00,SCT,BKN,0.00,250.0,WeatherDisplay:10.37,2013-03-31 20:45:00,
2013-03-31 10:50:00,70.9,50.8,30.12,NW,315,3.3,3.5,49,0.00,SCT,BKN,0.00,500.0,WeatherDisplay:10.37,2013-03-31 20:50:00,
2013-03-31 10:55:00,70.9,49.6,30.12,NNE,22,2.9,5.8,47,0.00,SCT,BKN,0.00,250.0,WeatherDisplay:10.37,2013-03-31 20:55:00,
2013-03-31 11:00:00,71.8,51.0,30.12,NNW,338,3.1,4.6,48,0.00,SCT,BKN,0.00,375.0,WeatherDisplay:10.37,2013-03-31 21:00:00,
2013-03-31 11:05:00,71.8,49.3,30.12,NNW,338,4.3,6.4,45,0.00,SCT,BKN,0.00,750.0,WeatherDisplay:10.37,2013-03-31 21:05:00,
2013-03-31 11:10:00,72.3,50.4,30.12,ESE,112,2.4,3.5,46,0.00,SCT,BKN,0.00,250.0,WeatherDisplay:10.37,2013-03-31 21:10:00,
2013-03-31 11:15:00,73.4,51.4,30.12,NNE,22,3.1,4.6,46,0.00,SCT,BKN,0.00,250.0,WeatherDisplay:10.37,2013-03-31 21:15:00,
2013-03-31 11:20:00,73.4,50.2,30.12,NNW,338,2.6,3.5,44,0.00,SCT,BKN,0.00,250.0,WeatherDisplay:10.37,2013-03-31 21:20:00,
2013-03-31 11:25:00,73.8,51.1,30.12,ENE,68,2.4,3.5,45,0.00,SCT,BKN,0.00,250.0,WeatherDisplay:10.37,2013-03-31 21:25:00,
2013-03-31 11:30:00,73.6,50.3,30.12,NE,45,2.4,4.6,44,0.00,SCT,BKN,0.00,250.0,WeatherDisplay:10.37,2013-03-31 21:30:00,
2013-03-31 11:37:00,73.9,51.3,30.09,ENE,68,3.8,4.6,45,0.00,SCT,BKN,0.00,375.0,WeatherDisplay:10.37,2013-03-31 21:37:00,
2013-03-31 11:42:00,74.7,51.3,30.09,NNE,22,3.3,4.6,44,0.00,SCT,BKN,0.00,625.0,WeatherDisplay:10.37,2013-03-31 21:42:00,
2013-03-31 11:47:00,75.7,52.3,30.09,NE,45,3.1,4.6,44,0.00,SCT,BKN,0.00,375.0,WeatherDisplay:10.37,2013-03-31 21:47:00,
2013-03-31 11:52:00,76.3,51.5,30.09,NW,315,3.1,3.5,42,0.00,SCT,BKN,0.00,500.0,WeatherDisplay:10.37,2013-03-31 21:52:00,
2013-03-31 11:57:00,77.7,52.8,30.09,NE,45,2.4,3.8,42,0.00,SCT,BKN,0.00,1375.0,WeatherDisplay:10.37,2013-03-31 21:57:00,
2013-03-31 12:02:00,78.4,54.1,30.06,NE,45,1.4,3.5,43,0.00,SCT,BKN,0.00,1375.0,WeatherDisplay:10.37,2013-03-31 22:02:00,
2013-03-31 12:07:00,79.2,53.4,30.06,NE,45,4.0,5.8,41,0.00,SCT,BKN,0.00,1375.0,WeatherDisplay:10.37,2013-03-31 22:07:00,
2013-03-31 12:12:00,79.2,53.4,30.06,NE,45,3.6,4.9,41,0.00,SCT,BKN,0.00,1250.0,WeatherDisplay:10.37,2013-03-31 22:12:00,
2013-03-31 12:17:00,80.2,54.4,30.06,NE,45,2.6,4.6,41,0.00,SCT,BKN,0.00,1375.0,WeatherDisplay:10.37,2013-03-31 22:17:00,
2013-03-31 12:22:00,80.6,54.0,30.06,NE,45,2.4,3.5,40,0.00,SCT,BKN,0.00,1375.0,WeatherDisplay:10.37,2013-03-31 22:22:00,
2013-03-31 12:28:00,81.3,54.7,30.06,NE,45,3.8,4.6,40,0.00,SCT,BKN,0.00,1375.0,WeatherDisplay:10.37,2013-03-31 22:28:00,
2013-03-31 12:33:00,81.7,55.0,30.06,NE,45,2.9,3.5,40,0.00,SCT,BKN,0.00,1375.0,WeatherDisplay:10.37,2013-03-31 22:33:00,
2013-03-31 12:38:00,81.5,53.4,30.06,NE,45,1.6,3.5,38,0.00,SCT,BKN,0.00,1375.0,WeatherDisplay:10.37,2013-03-31 22:38:00,
2013-03-31 12:43:00,82.9,54.7,30.06,ENE,68,2.2,3.5,38,0.00,SCT,BKN,0.00,1375.0,WeatherDisplay:10.37,2013-03-31 22:43:00,
2013-03-31 12:48:00,84.2,55.8,30.06,East,90,0.0,2.3,38,0.00,SCT,BKN,0.00,1375.0,WeatherDisplay:10.37,2013-03-31 22:48:00,
2013-03-31 12:53:00,82.8,53.1,30.06,NE,45,4.5,6.9,36,0.00,SCT,BKN,0.00,1375.0,WeatherDisplay:10.37,2013-03-31 22:53:00,
2013-03-31 12:58:00,82.4,52.8,30.06,NE,45,4.3,6.0,36,0.00,SCT,BKN,0.00,1375.0,WeatherDisplay:10.37,2013-03-31 22:58:00,
2013-03-31 13:03:00,81.0,52.2,30.06,East,90,2.6,3.5,37,0.00,SCT,BKN,0.00,1375.0,WeatherDisplay:10.37,2013-03-31 23:03:00,
2013-03-31 13:08:00,82.4,54.2,30.06,NE,45,2.2,3.5,38,0.00,SCT,BKN,0.00,1250.0,WeatherDisplay:10.37,2013-03-31 23:08:00,
2013-03-31 13:13:00,84.4,55.3,30.06,NNE,22,2.0,3.5,37,0.00,SCT,BKN,0.00,1250.0,WeatherDisplay:10.37,2013-03-31 23:13:00,
2013-03-31 13:19:00,82.9,53.2,30.06,North,0,3.6,5.8,36,0.00,SCT,BKN,0.00,1250.0,WeatherDisplay:10.37,2013-03-31 23:19:00,
2013-03-31 13:24:00,85.6,55.6,30.06,NNE,22,2.6,3.5,36,0.00,SCT,BKN,0.00,1250.0,WeatherDisplay:10.37,2013-03-31 23:24:00,
2013-03-31 13:29:00,82.6,51.4,30.06,WSW,248,4.0,5.8,34,0.00,SCT,BKN,0.00,375.0,WeatherDisplay:10.37,2013-03-31 23:29:00,
2013-03-31 13:34:00,83.1,52.6,30.06,NNW,338,2.6,4.6,35,0.00,SCT,BKN,0.00,1375.0,WeatherDisplay:10.37,2013-03-31 23:34:00,
2013-03-31 13:39:00,85.1,54.4,30.06,NNE,22,3.3,3.8,35,0.00,SCT,BKN,0.00,1375.0,WeatherDisplay:10.37,2013-03-31 23:39:00,
2013-03-31 13:45:00,84.0,53.4,30.06,NNE,22,2.6,3.5,35,0.00,SCT,BKN,0.00,1375.0,WeatherDisplay:10.37,2013-03-31 23:45:00,
2013-03-31 13:50:00,86.8,56.7,30.06,NE,40,1.0,0.0,36,0.00,SCT,BKN,0.00,1252.0,WeatherDisplay:10.37,2013-03-31 23:50:00,
2013-03-31 13:55:00,86.4,54.7,30.06,NE,35,3.0,0.0,34,0.00,SCT,BKN,0.00,1244.0,WeatherDisplay:10.37,2013-03-31 23:55:00,
2013-03-31 14:00:00,87.2,55.4,30.06,NE,37,2.0,0.0,34,0.00,SCT,BKN,0.00,1235.0,WeatherDisplay:10.37,2013-04-01 00:00:00,
2013-03-31 14:05:00,87.2,54.6,30.03,NNE,13,2.0,0.0,33,0.00,SCT,BKN,0.00,500.0,WeatherDisplay:10.37,2013-04-01 00:05:00,
2013-03-31 14:10:00,85.3,53.7,30.03,NNE,32,3.0,0.0,34,0.00,SCT,BKN,0.00,375.0,WeatherDisplay:10.37,2013-04-01 00:10:00,
2013-03-31 14:15:00,81.1,51.6,30.03,NE,46,2.0,0.0,36,0.00,SCT,BKN,0.00,1205.0,WeatherDisplay:10.37,2013-04-01 00:15:00,
2013-03-31 14:20:00,81.8,53.0,30.03,NE,41,2.0,0.0,37,0.00,SCT,BKN,0.00,1194.0,WeatherDisplay:10.37,2013-04-01 00:20:00,
2013-03-31 14:25:00,84.0,54.9,30.03,NE,45,2.0,0.0,37,0.00,SCT,BKN,0.00,1182.0,WeatherDisplay:10.37,2013-04-01 00:25:00,
2013-03-31 14:30:00,85.1,55.1,30.03,NE,48,2.0,0.0,36,0.00,SCT,BKN,0.00,1000.0,WeatherDisplay:10.37,2013-04-01 00:30:00,
2013-03-31 14:35:00,86.7,55.8,30.03,North,0,1.4,2.4,35,0.00,SCT,BKN,0.00,1250.0,WeatherDisplay:10.37,2013-04-01 00:35:00,
2013-03-31 14:40:00,86.2,53.7,30.03,NE,45,4.5,5.8,33,0.00,SCT,BKN,0.00,750.0,WeatherDisplay:10.37,2013-04-01 00:40:00,
2013-03-31 14:45:00,84.7,54.1,30.03,NNE,22,3.1,4.6,35,0.00,SCT,BKN,0.00,1250.0,WeatherDisplay:10.37,2013-04-01 00:45:00,
2013-03-31 14:50:00,85.3,53.7,30.03,NNE,22,1.6,4.6,34,0.00,SCT,BKN,0.00,1125.0,WeatherDisplay:10.37,2013-04-01 00:50:00,
2013-03-31 14:55:00,86.7,55.0,30.03,NNW,338,1.6,2.3,34,0.00,SCT,BKN,0.00,1125.0,WeatherDisplay:10.37,2013-04-01 00:55:00,
2013-03-31 15:00:00,87.1,54.5,30.03,NE,45,2.9,4.6,33,0.00,SCT,BKN,0.00,1125.0,WeatherDisplay:10.37,2013-04-01 01:00:00,
2013-03-31 15:05:00,85.6,53.2,30.03,NE,45,3.8,5.8,33,0.00,SCT,BKN,0.00,500.0,WeatherDisplay:10.37,2013-04-01 01:05:00,
2013-03-31 15:10:00,83.1,51.8,30.03,North,0,3.8,5.8,34,0.00,SCT,BKN,0.00,250.0,WeatherDisplay:10.37,2013-04-01 01:10:00,
2013-03-31 15:15:00,79.3,51.5,30.03,NE,45,2.6,4.6,38,0.00,SCT,BKN,0.00,125.0,WeatherDisplay:10.37,2013-04-01 01:15:00,
2013-03-31 15:20:00,78.8,52.4,30.03,NE,45,2.0,3.8,40,0.00,SCT,BKN,0.00,250.0,WeatherDisplay:10.37,2013-04-01 01:20:00,
2013-03-31 15:25:00,79.2,54.1,30.03,NE,45,3.3,4.6,42,0.00,SCT,BKN,0.00,750.0,WeatherDisplay:10.37,2013-04-01 01:25:00,
2013-03-31 15:30:00,79.7,55.2,30.03,NE,45,2.6,3.5,43,0.00,SCT,BKN,0.00,500.0,WeatherDisplay:10.37,2013-04-01 01:30:00,
2013-03-31 15:35:00,77.7,53.4,30.03,NE,45,2.4,4.6,43,0.00,SCT,BKN,0.00,125.0,WeatherDisplay:10.37,2013-04-01 01:35:00,
2013-03-31 15:40:00,75.9,53.0,30.03,NE,45,3.6,5.8,45,0.00,SCT,BKN,0.00,375.0,WeatherDisplay:10.37,2013-04-01 01:40:00,
2013-03-31 15:45:00,76.5,54.1,30.03,NE,45,2.2,3.5,46,0.00,SCT,BKN,0.00,125.0,WeatherDisplay:10.37,2013-04-01 01:45:00,
2013-03-31 15:50:00,75.2,52.4,30.00,ESE,112,1.2,2.3,45,0.00,SCT,BKN,0.00,125.0,WeatherDisplay:10.37,2013-04-01 01:50:00,
2013-03-31 15:55:00,76.5,54.1,30.00,NE,45,3.3,4.3,46,0.00,SCT,BKN,0.00,375.0,WeatherDisplay:10.37,2013-04-01 01:55:00,
2013-03-31 16:00:00,78.1,55.0,30.00,NNE,22,3.3,4.6,45,0.00,SCT,BKN,0.00,625.0,WeatherDisplay:10.37,2013-04-01 02:00:00,
2013-03-31 16:05:00,77.0,53.4,30.00,NE,45,0.0,2.3,44,0.00,SCT,BKN,0.00,125.0,WeatherDisplay:10.37,2013-04-01 02:05:00,
2013-03-31 16:10:00,76.3,53.4,30.00,NW,315,2.2,3.5,45,0.00,SCT,BKN,0.00,125.0,WeatherDisplay:10.37,2013-04-01 02:10:00,
2013-03-31 16:15:00,75.4,52.6,30.00,ENE,68,3.3,4.6,45,0.00,SCT,BKN,0.00,250.0,WeatherDisplay:10.37,2013-04-01 02:15:00,
2013-03-31 16:20:00,78.4,55.3,30.00,NW,315,0.0,1.2,45,0.00,SCT,BKN,0.00,375.0,WeatherDisplay:10.37,2013-04-01 02:20:00,
2013-03-31 16:25:00,79.5,54.4,30.00,NW,315,2.0,2.3,42,0.00,SCT,BKN,0.00,375.0,WeatherDisplay:10.37,2013-04-01 02:25:00,
2013-03-31 16:30:00,77.2,52.3,30.00,NNW,338,1.4,3.5,42,0.00,SCT,BKN,0.00,125.0,WeatherDisplay:10.37,2013-04-01 02:30:00,
2013-03-31 16:35:00,74.8,52.1,30.03,ENE,68,3.1,3.5,45,0.00,SCT,BKN,0.00,125.0,WeatherDisplay:10.37,2013-04-01 02:35:00,
2013-03-31 16:40:00,74.5,52.3,30.03,North,0,0.9,2.6,46,0.00,SCT,BKN,0.00,125.0,WeatherDisplay:10.37,2013-04-01 02:40:00,
2013-03-31 16:45:00,75.7,54.1,30.03,North,0,2.9,4.6,47,0.00,SCT,BKN,0.00,250.0,WeatherDisplay:10.37,2013-04-01 02:45:00,
2013-03-31 16:50:00,76.8,54.5,30.00,ENE,68,3.3,4.6,46,0.00,SCT,BKN,0.00,125.0,WeatherDisplay:10.37,2013-04-01 02:50:00,
2013-03-31 16:55:00,76.8,54.5,30.00,NE,45,2.6,3.5,46,0.00,SCT,BKN,0.00,125.0,WeatherDisplay:10.37,2013-04-01 02:55:00,
2013-03-31 17:00:00,77.2,54.8,30.00,ENE,68,3.1,3.5,46,0.00,SCT,BKN,0.00,125.0,WeatherDisplay:10.37,2013-04-01 03:00:00,
2013-03-31 17:05:00,76.8,53.9,30.00,ENE,68,3.6,4.6,45,0.00,SCT,BKN,0.00,125.0,WeatherDisplay:10.37,2013-04-01 03:05:00,
2013-03-31 17:10:00,76.6,54.3,30.00,NE,45,2.9,4.6,46,0.00,SCT,BKN,0.00,125.0,WeatherDisplay:10.37,2013-04-01 03:10:00,
2013-03-31 17:15:00,76.5,53.5,30.00,ENE,68,2.2,5.8,45,0.00,SCT,BKN,0.00,0.0,WeatherDisplay:10.37,2013-04-01 03:15:00,
2013-03-31 17:20:00,75.9,53.0,30.00,NE,45,3.1,5.8,45,0.00,SCT,BKN,0.00,0.0,WeatherDisplay:10.37,2013-04-01 03:20:00,
2013-03-31 17:25:00,74.8,52.1,30.00,NE,45,3.6,5.6,45,0.00,SCT,BKN,0.00,0.0,WeatherDisplay:10.37,2013-04-01 03:25:00,
2013-03-31 17:30:00,73.9,52.4,30.00,NE,45,2.0,4.6,47,0.00,SCT,BKN,0.00,0.0,WeatherDisplay:10.37,2013-04-01 03:30:00,
2013-03-31 17:35:00,74.1,52.6,30.00,East,90,3.3,4.6,47,0.00,SCT,BKN,0.00,0.0,WeatherDisplay:10.37,2013-04-01 03:35:00,
2013-03-31 17:41:00,74.1,52.6,30.00,NE,45,2.0,3.5,47,0.00,SCT,BKN,0.00,0.0,WeatherDisplay:10.37,2013-04-01 03:41:00,
2013-03-31 17:46:00,73.4,51.9,30.00,NE,45,3.3,5.8,47,0.00,SCT,BKN,0.00,0.0,WeatherDisplay:10.37,2013-04-01 03:46:00,
2013-03-31 17:51:00,72.9,51.4,30.00,NE,45,3.8,5.8,47,0.00,SCT,BKN,0.00,0.0,WeatherDisplay:10.37,2013-04-01 03:51:00,
2013-03-31 17:56:00,72.3,51.5,30.00,NE,45,3.1,5.8,48,0.00,SCT,BKN,0.00,0.0,WeatherDisplay:10.37,2013-04-01 03:56:00,
2013-03-31 18:00:00,72.1,51.4,30.00,NE,45,3.1,3.6,48,0.00,SCT,BKN,0.00,0.0,WeatherDisplay:10.37,2013-04-01 04:00:00,
2013-03-31 18:01:00,72.1,51.4,30.00,NE,45,3.3,4.6,48,0.00,SCT,BKN,0.00,0.0,WeatherDisplay:10.37,2013-04-01 04:01:00,
2013-03-31 18:06:00,71.8,51.0,30.03,ENE,68,2.9,4.7,48,0.00,SCT,BKN,0.00,0.0,WeatherDisplay:10.37,2013-04-01 04:06:00,
2013-03-31 18:11:00,71.4,51.3,30.03,ENE,68,2.9,4.6,49,0.00,SCT,BKN,0.00,0.0,WeatherDisplay:10.37,2013-04-01 04:11:00,
2013-03-31 18:14:00,71.2,51.1,30.03,NE,45,3.8,4.6,49,0.00,SCT,BKN,0.00,0.0,WeatherDisplay:10.37,2013-04-01 04:14:00,
2013-03-31 18:19:00,70.7,51.1,30.03,ENE,68,2.6,3.5,50,0.00,SCT,BKN,0.00,0.0,WeatherDisplay:10.37,2013-04-01 04:19:00,
2013-03-31 18:24:00,69.6,50.2,30.03,NE,45,2.2,3.5,50,0.00,SCT,BKN,0.00,0.0,WeatherDisplay:10.37,2013-04-01 04:24:00,
2013-03-31 18:29:00,69.1,50.7,30.03,WNW,292,2.6,3.6,52,0.00,SCT,BKN,0.00,0.0,WeatherDisplay:10.37,2013-04-01 04:29:00,
2013-03-31 18:34:00,68.5,49.2,30.03,NW,315,2.2,3.5,50,0.00,SCT,BKN,0.00,0.0,WeatherDisplay:10.37,2013-04-01 04:34:00,
2013-03-31 18:39:00,68.2,48.3,30.03,ESE,112,2.0,3.5,49,0.00,SCT,BKN,0.00,0.0,WeatherDisplay:10.37,2013-04-01 04:39:00,
2013-03-31 18:44:00,68.0,48.1,30.03,West,270,2.6,3.5,49,0.00,SCT,BKN,0.00,0.0,WeatherDisplay:10.37,2013-04-01 04:44:00,
2013-03-31 18:49:00,67.8,48.0,30.03,NE,45,0.0,2.3,49,0.00,SCT,BKN,0.00,0.0,WeatherDisplay:10.37,2013-04-01 04:49:00,
2013-03-31 18:54:00,67.5,48.2,30.03,SSW,202,4.0,4.6,50,0.00,SCT,BKN,0.00,0.0,WeatherDisplay:10.37,2013-04-01 04:54:00,
2013-03-31 19:00:00,67.3,48.5,30.03,SW,225,0.9,3.6,51,0.00,SCT,BKN,0.00,0.0,WeatherDisplay:10.37,2013-04-01 05:00:00,
2013-03-31 19:05:00,67.1,48.4,30.03,NW,315,1.4,1.4,51,0.00,SCT,BKN,0.00,0.0,WeatherDisplay:10.37,2013-04-01 05:05:00,
2013-03-31 19:10:00,66.7,48.5,30.03,ENE,68,0.0,1.2,52,0.00,SCT,BKN,0.00,0.0,WeatherDisplay:10.37,2013-04-01 05:10:00,
2013-03-31 19:15:00,66.2,49.1,30.03,ENE,68,0.9,4.3,54,0.00,SCT,BKN,0.00,0.0,WeatherDisplay:10.37,2013-04-01 05:15:00,
2013-03-31 19:20:00,66.0,49.4,30.03,ENE,68,0.0,2.9,55,0.00,SCT,BKN,0.00,0.0,WeatherDisplay:10.37,2013-04-01 05:20:00,
2013-03-31 19:25:00,66.0,49.9,30.03,NE,45,2.6,3.5,56,0.00,SCT,BKN,0.00,0.0,WeatherDisplay:10.37,2013-04-01 05:25:00,
2013-03-31 19:30:00,66.0,49.9,30.03,NE,45,1.6,2.4,56,0.00,SCT,BKN,0.00,0.0,WeatherDisplay:10.37,2013-04-01 05:30:00,
2013-03-31 19:35:00,65.8,49.7,30.06,East,90,2.9,4.6,56,0.00,SCT,BKN,0.00,0.0,WeatherDisplay:10.37,2013-04-01 05:35:00,
2013-03-31 19:40:00,65.8,49.7,30.06,ENE,68,2.6,3.6,56,0.00,SCT,BKN,0.00,0.0,WeatherDisplay:10.37,2013-04-01 05:40:00,
2013-03-31 19:45:00,65.7,50.0,30.06,NE,45,2.6,2.6,57,0.00,SCT,BKN,0.00,0.0,WeatherDisplay:10.37,2013-04-01 05:45:00,
2013-03-31 19:50:00,65.7,50.0,30.06,ENE,61,3.0,0.0,57,0.00,SCT,BKN,0.00,0.0,WeatherDisplay:10.37,2013-04-01 05:50:00,
2013-03-31 19:55:00,65.7,50.0,30.06,ENE,58,3.0,0.0,57,0.00,SCT,BKN,0.00,0.0,WeatherDisplay:10.37,2013-04-01 05:55:00,
2013-03-31 20:00:00,65.7,50.0,30.06,ENE,57,3.0,0.0,57,0.00,SCT,BKN,0.00,0.0,WeatherDisplay:10.37,2013-04-01 06:00:00,
2013-03-31 20:05:00,65.7,50.0,30.06,ENE,60,3.0,0.0,57,0.00,SCT,BKN,0.00,0.0,WeatherDisplay:10.37,2013-04-01 06:05:00,
2013-03-31 20:10:00,65.7,50.0,30.06,NE,56,3.0,0.0,57,0.00,SCT,BKN,0.00,0.0,WeatherDisplay:10.37,2013-04-01 06:10:00,
2013-03-31 20:15:00,65.7,50.0,30.06,ENE,61,2.0,0.0,57,0.00,SCT,BKN,0.00,0.0,WeatherDisplay:10.37,2013-04-01 06:15:00,
2013-03-31 20:20:00,65.5,49.8,30.06,ENE,66,2.0,0.0,57,0.00,SCT,BKN,0.00,0.0,WeatherDisplay:10.37,2013-04-01 06:20:00,
2013-03-31 20:25:00,65.7,50.0,30.06,ENE,60,3.0,0.0,57,0.00,SCT,BKN,0.00,0.0,WeatherDisplay:10.37,2013-04-01 06:25:00,
2013-03-31 20:30:00,65.5,49.8,30.06,ENE,67,2.0,0.0,57,0.00,SCT,BKN,0.00,0.0,WeatherDisplay:10.37,2013-04-01 06:30:00,
2013-03-31 20:35:00,65.5,49.8,30.03,ENE,71,2.0,0.0,57,0.00,SCT,BKN,0.00,0.0,WeatherDisplay:10.37,2013-04-01 06:35:00,
2013-03-31 20:40:00,65.1,49.5,30.03,ENE,67,1.0,0.0,57,0.00,SCT,BKN,0.00,0.0,WeatherDisplay:10.37,2013-04-01 06:40:00,
2013-03-31 20:45:00,64.9,49.3,30.03,NE,50,0.0,0.0,57,0.00,SCT,BKN,0.00,0.0,WeatherDisplay:10.37,2013-04-01 06:45:00,
2013-03-31 20:50:00,64.8,49.6,30.03,ENE,68,0.9,1.2,58,0.00,SCT,BKN,0.00,0.0,WeatherDisplay:10.37,2013-04-01 06:50:00,
2013-03-31 20:55:00,64.4,49.3,30.03,ENE,68,0.0,0.0,58,0.00,SCT,BKN,0.00,0.0,WeatherDisplay:10.37,2013-04-01 06:55:00,
2013-03-31 21:00:00,64.2,50.0,30.03,ENE,68,1.6,2.3,60,0.00,SCT,BKN,0.00,0.0,WeatherDisplay:10.37,2013-04-01 07:00:00,
2013-03-31 21:05:00,64.4,50.2,30.06,East,90,3.3,4.6,60,0.00,SCT,BKN,0.00,0.0,WeatherDisplay:10.37,2013-04-01 07:05:00,
2013-03-31 21:10:00,64.6,49.9,30.06,NE,45,2.4,2.4,59,0.00,SCT,BKN,0.00,0.0,WeatherDisplay:10.37,2013-04-01 07:10:00,
2013-03-31 21:15:00,64.4,49.8,30.06,NE,45,0.9,2.3,59,0.00,SCT,BKN,0.00,0.0,WeatherDisplay:10.37,2013-04-01 07:15:00,
2013-03-31 21:20:00,64.4,49.8,30.06,ENE,68,0.0,0.0,59,0.00,SCT,BKN,0.00,0.0,WeatherDisplay:10.37,2013-04-01 07:20:00,
2013-03-31 21:25:00,64.0,49.9,30.06,ENE,68,0.0,0.0,60,0.00,SCT,BKN,0.00,0.0,WeatherDisplay:10.37,2013-04-01 07:25:00,
2013-03-31 21:30:00,63.9,49.7,30.06,ENE,68,0.0,0.0,60,0.00,SCT,BKN,0.00,0.0,WeatherDisplay:10.37,2013-04-01 07:30:00,
2013-03-31 21:35:00,63.7,49.5,30.06,East,90,0.0,1.2,60,0.00,SCT,BKN,0.00,0.0,WeatherDisplay:10.37,2013-04-01 07:35:00,
2013-03-31 21:40:00,63.7,50.0,30.06,ENE,68,2.0,3.5,61,0.00,SCT,BKN,0.00,0.0,WeatherDisplay:10.37,2013-04-01 07:40:00,
2013-03-31 21:45:00,64.0,50.3,30.06,East,90,1.4,3.5,61,0.00,SCT,BKN,0.00,0.0,WeatherDisplay:10.37,2013-04-01 07:45:00,
2013-03-31 21:50:00,64.2,50.0,30.06,ENE,68,2.0,3.5,60,0.00,SCT,BKN,0.00,0.0,WeatherDisplay:10.37,2013-04-01 07:50:00,
2013-03-31 21:55:00,64.2,49.6,30.06,SE,135,0.0,0.0,59,0.00,SCT,BKN,0.00,0.0,WeatherDisplay:10.37,2013-04-01 07:55:00,
2013-03-31 22:00:00,63.9,49.7,30.06,SE,135,0.0,1.2,60,0.00,SCT,BKN,0.00,0.0,WeatherDisplay:10.37,2013-04-01 08:00:00,
2013-03-31 22:05:00,63.5,49.4,30.06,SE,135,0.0,0.0,60,0.00,SCT,BKN,0.00,0.0,WeatherDisplay:10.37,2013-04-01 08:05:00,
2013-03-31 22:10:00,63.3,49.2,30.06,NE,45,1.2,1.2,60,0.00,SCT,BKN,0.00,0.0,WeatherDisplay:10.37,2013-04-01 08:10:00,
2013-03-31 22:15:00,63.3,48.7,30.06,ENE,68,0.0,0.0,59,0.00,SCT,BKN,0.00,0.0,WeatherDisplay:10.37,2013-04-01 08:15:00,
2013-03-31 22:20:00,63.5,48.9,30.06,East,90,1.6,2.3,59,0.00,SCT,BKN,0.00,0.0,WeatherDisplay:10.37,2013-04-01 08:20:00,
2013-03-31 22:25:00,63.5,49.4,30.06,ENE,68,0.0,1.2,60,0.00,SCT,BKN,0.00,0.0,WeatherDisplay:10.37,2013-04-01 08:25:00,
2013-03-31 22:30:00,63.3,49.2,30.06,NE,45,2.0,3.5,60,0.00,SCT,BKN,0.00,0.0,WeatherDisplay:10.37,2013-04-01 08:30:00,
2013-03-31 22:35:00,63.7,49.1,30.06,ENE,68,1.2,2.3,59,0.00,SCT,BKN,0.00,0.0,WeatherDisplay:10.37,2013-04-01 08:35:00,
2013-03-31 22:40:00,63.9,49.2,30.06,ENE,68,2.2,3.5,59,0.00,SCT,BKN,0.00,0.0,WeatherDisplay:10.37,2013-04-01 08:40:00,
2013-03-31 22:45:00,64.2,49.1,30.06,ENE,68,3.1,3.5,58,0.00,SCT,BKN,0.00,0.0,WeatherDisplay:10.37,2013-04-01 08:45:00,
2013-03-31 22:50:00,64.4,49.3,30.06,ENE,68,2.9,3.1,58,0.00,SCT,BKN,0.00,0.0,WeatherDisplay:10.37,2013-04-01 08:50:00,
2013-03-31 22:55:00,64.8,48.7,30.06,East,90,3.6,4.6,56,0.00,SCT,BKN,0.00,0.0,WeatherDisplay:10.37,2013-04-01 08:55:00,
2013-03-31 23:00:00,64.9,48.9,30.06,East,90,0.0,2.2,56,0.00,SCT,BKN,0.00,0.0,WeatherDisplay:10.37,2013-04-01 09:00:00,
2013-03-31 23:05:00,64.8,48.7,30.06,ENE,68,1.4,2.3,56,0.00,SCT,BKN,0.00,0.0,WeatherDisplay:10.37,2013-04-01 09:05:00,
2013-03-31 23:10:00,64.6,48.5,30.06,NNW,338,0.0,0.0,56,0.00,SCT,BKN,0.00,0.0,WeatherDisplay:10.37,2013-04-01 09:10:00,
2013-03-31 23:15:00,64.4,48.4,30.06,NE,45,2.0,2.3,56,0.00,SCT,BKN,0.00,0.0,WeatherDisplay:10.37,2013-04-01 09:15:00,
2013-03-31 23:20:00,64.2,48.7,30.06,ESE,112,0.0,0.0,57,0.00,SCT,BKN,0.00,0.0,WeatherDisplay:10.37,2013-04-01 09:20:00,
2013-03-31 23:25:00,64.0,48.5,30.06,WSW,248,0.0,0.0,57,0.00,SCT,BKN,0.00,0.0,WeatherDisplay:10.37,2013-04-01 09:25:00,
2013-03-31 23:30:00,63.7,49.1,30.06,ESE,112,0.9,1.2,59,0.00,SCT,BKN,0.00,0.0,WeatherDisplay:10.37,2013-04-01 09:30:00,
2013-03-31 23:36:00,63.1,48.6,30.06,ESE,112,0.0,1.2,59,0.00,SCT,BKN,0.00,0.0,WeatherDisplay:10.37,2013-04-01 09:36:00,
2013-03-31 23:41:00,63.0,49.3,30.06,ESE,112,0.0,0.0,61,0.00,SCT,BKN,0.00,0.0,WeatherDisplay:10.37,2013-04-01 09:41:00,
2013-03-31 23:46:00,62.8,49.1,30.06,ESE,112,0.0,0.0,61,0.00,SCT,BKN,0.00,0.0,WeatherDisplay:10.37,2013-04-01 09:46:00,
2013-03-31 23:51:00,62.6,49.8,30.03,ESE,112,1.4,1.4,63,0.00,SCT,BKN,0.00,0.0,WeatherDisplay:10.37,2013-04-01 09:51:00,
2013-03-31 23:56:00,62.2,49.5,30.03,ESE,112,0.0,0.0,63,0.00,SCT,BKN,0.00,0.0,WeatherDisplay:10.37,2013-04-01 09:56:00,